TimeCST,TemperatureF,Dew PointF,Humidity,Sea Level PressureIn,VisibilityMPH,Wind Direction,Wind SpeedMPH,Gust SpeedMPH,PrecipitationIn,Events,Conditions,WindDirDegrees,DateUTC
12:39 AM,42.8,37.4,81,30.10,10.0,NE,8.1,-,0.00,,Overcast,40,2013-01-15 06:39:00
12:53 AM,42.1,37.9,85,30.12,10.0,NE,11.5,-,0.00,,Overcast,50,2013-01-15 06:53:00
1:06 AM,42.8,37.4,81,30.09,9.0,NE,10.4,-,0.00,Rain,Light Rain,40,2013-01-15 07:06:00
1:53 AM,42.1,37.9,85,30.11,10.0,North,4.6,-,0.00,Rain,Light Rain,10,2013-01-15 07:53:00
2:32 AM,42.8,37.4,81,30.06,10.0,NE,12.7,-,0.00,,Overcast,40,2013-01-15 08:32:00
2:40 AM,42.8,37.4,81,30.07,10.0,NE,11.5,-,0.00,,Overcast,40,2013-01-15 08:40:00
2:53 AM,42.1,37.9,85,30.09,10.0,NE,6.9,-,0.00,,Overcast,40,2013-01-15 08:53:00
3:07 AM,41.0,37.4,87,30.06,10.0,NE,10.4,-,0.00,Rain,Light Rain,40,2013-01-15 09:07:00
3:53 AM,41.0,37.9,89,30.07,6.0,NE,11.5,-,0.00,Rain,Light Rain,40,2013-01-15 09:53:00
4:53 AM,39.9,37.9,93,30.07,4.0,NE,10.4,-,0.04,Rain,Light Rain,40,2013-01-15 10:53:00
5:53 AM,39.2,37.4,93,30.05,6.0,NNE,8.1,-,N/A,Rain,Light Rain,20,2013-01-15 11:53:00
6:53 AM,39.9,37.0,89,30.07,4.0,NNE,10.4,-,0.03,Rain,Light Rain,20,2013-01-15 12:53:00
7:53 AM,39.9,37.0,89,30.09,6.0,NE,11.5,-,0.00,Rain,Light Rain,40,2013-01-15 13:53:00
8:30 AM,39.2,37.4,93,30.07,2.0,North,9.2,-,0.04,Rain,Rain,10,2013-01-15 14:30:00
8:39 AM,39.2,37.4,93,30.09,6.0,North,9.2,-,0.04,Rain,Light Rain,360,2013-01-15 14:39:00
8:53 AM,39.9,37.0,89,30.11,10.0,North,9.2,-,0.05,Rain,Light Rain,360,2013-01-15 14:53:00
9:07 AM,39.2,37.4,93,30.09,1.8,North,9.2,-,0.02,Rain,Heavy Rain,10,2013-01-15 15:07:00
9:18 AM,39.2,37.4,93,30.09,3.0,NNE,6.9,-,0.08,Rain,Light Rain,20,2013-01-15 15:18:00
9:29 AM,39.2,37.4,93,30.10,2.5,North,11.5,-,0.10,Rain,Rain,360,2013-01-15 15:29:00
9:37 AM,39.2,37.4,93,30.10,3.0,North,10.4,-,0.10,Rain,Light Rain,360,2013-01-15 15:37:00
9:44 AM,39.2,37.4,93,30.11,1.8,North,6.9,-,0.12,Rain,Rain,360,2013-01-15 15:44:00
9:53 AM,39.0,37.0,93,30.13,1.2,North,8.1,-,0.18,Rain,Heavy Rain,350,2013-01-15 15:53:00
9:59 AM,39.2,37.4,93,30.11,3.0,North,8.1,-,0.01,Rain,Light Rain,350,2013-01-15 15:59:00
10:53 AM,39.9,37.0,89,30.11,10.0,North,9.2,-,0.02,Rain,Light Rain,350,2013-01-15 16:53:00
11:40 AM,39.2,37.4,93,30.06,2.0,North,10.4,-,0.02,Rain,Light Rain,10,2013-01-15 17:40:00
11:49 AM,39.2,37.4,93,30.05,10.0,North,12.7,-,0.02,Rain,Light Rain,360,2013-01-15 17:49:00
11:53 AM,39.0,37.0,93,30.08,10.0,North,10.4,-,0.02,Rain,Light Rain,350,2013-01-15 17:53:00
12:43 PM,37.4,35.6,93,30.04,1.8,North,16.1,19.6,0.03,Rain,Heavy Rain,350,2013-01-15 18:43:00
12:53 PM,37.9,35.1,89,30.07,3.0,NNW,15.0,21.9,0.06,Rain,Rain,340,2013-01-15 18:53:00
1:53 PM,37.9,35.1,89,30.06,6.0,North,11.5,-,0.02,Rain,Light Rain,350,2013-01-15 19:53:00
2:53 PM,37.9,35.1,89,30.06,10.0,North,11.5,-,0.00,,Overcast,360,2013-01-15 20:53:00
3:53 PM,39.0,35.1,86,30.05,10.0,North,8.1,-,N/A,,Overcast,10,2013-01-15 21:53:00
4:53 PM,37.9,36.0,93,30.05,9.0,North,9.2,-,0.00,,Overcast,10,2013-01-15 22:53:00
5:53 PM,39.0,36.0,89,30.08,10.0,North,8.1,-,N/A,,Overcast,360,2013-01-15 23:53:00
6:53 PM,39.0,35.1,86,30.10,10.0,North,8.1,-,N/A,,Overcast,350,2013-01-16 00:53:00
7:53 PM,37.9,35.1,89,30.10,10.0,North,10.4,-,0.00,Rain,Light Rain,350,2013-01-16 01:53:00
8:44 PM,37.4,33.8,87,30.08,6.0,North,10.4,-,0.06,Rain,Rain,360,2013-01-16 02:44:00
8:51 PM,37.4,35.6,93,30.09,4.0,NNW,12.7,-,0.07,Rain,Rain,340,2013-01-16 02:51:00
8:53 PM,37.0,35.1,93,30.11,4.0,North,12.7,-,0.08,Rain,Rain,350,2013-01-16 02:53:00
9:02 PM,37.4,33.8,87,30.08,3.0,North,12.7,-,0.02,Rain,Heavy Rain,360,2013-01-16 03:02:00
9:18 PM,37.4,35.6,93,30.10,7.0,North,11.5,-,0.03,Rain,Light Rain,350,2013-01-16 03:18:00
9:30 PM,37.4,33.8,87,30.10,5.0,NNW,13.8,-,0.05,Rain,Light Rain,340,2013-01-16 03:30:00
9:53 PM,37.0,35.1,93,30.12,4.0,North,9.2,-,0.09,Rain,Heavy Rain,350,2013-01-16 03:53:00
10:42 PM,37.4,33.8,87,30.10,9.0,North,10.4,-,0.01,Rain,Light Rain,350,2013-01-16 04:42:00
10:53 PM,36.0,33.1,89,30.12,6.0,North,13.8,-,0.02,Rain,Light Rain,350,2013-01-16 04:53:00
11:29 PM,37.4,33.8,87,30.11,10.0,North,12.7,-,0.03,,Overcast,350,2013-01-16 05:29:00
11:53 PM,37.4,33.8,87,30.09,10.0,North,11.5,20.7,N/A,,Overcast,360,2013-01-16 05:53:00